Weather History for CWBU - May, 2013

Change the Weather History Date:

Wednesday, May 15, 2013

  Actual Average Record
Temperature  
Mean Temperature 54 °F -  
Max Temperature 69 °F - - ()
Min Temperature 40 °F - - ()
Degree Days  
Heating Degree Days 10    
Growing Degree Days 4 (Base 50)    
Moisture  
Dew Point 39 °F    
Average Humidity 55    
Maximum Humidity 88    
Minimum Humidity 18    
Precipitation  
Precipitation 0.02 in - - ()
Sea Level Pressure  
Sea Level Pressure 29.85 in    
Wind  
Wind Speed 5 mph ()    
Max Wind Speed 12 mph    
Max Gust Speed -    
T = Trace of Precipitation, MM = Missing Value Source: Averaged Metar Reports

Daily Weather History Graph

Daily Weather History Graph

Search for Another Location

Airport or City:

Trip Planner

Search our weather history database for the weather conditions in past years. The results will help you decide how hot, cold, wet, or windy it might be!

Date:

Astronomy

May. 15, 2013 Rise Set
Actual Time 4:55 AM CST 8:50 PM CST
Civil Twilight 4:11 AM CST 9:34 PM CST
Nautical Twilight 3:08 AM CST 10:38 PM CST
Astronomical Twilight 1:24 AM CST 12:19 AM CST
Moon 9:42 AM CST (5/15) 12:30 AM CST (5/15)
Length of Visible Light 17h 23m
Length of Day
15h 54m
Waxing Crescent, 27% of the Moon is Illuminated
May 15
Waxing Crescent
May 17
First Quarter
May 24
Full
May 31
Last Quarter
Jun 8
New

Hourly Weather History & Observations

Time (CST) Temp. Windchill Dew Point Humidity Pressure Visibility Wind Dir Wind Speed Gust Speed Precip Events Conditions
12:00 AM 47 °F - 35 °F 53% 29.74 in - Calm Calm - -  
12:00 AM 46.9 °F - 35.2 °F 64% 29.74 in - Calm Calm - N/A   Unknown
1:00 AM 52.2 °F - 44.8 °F 76% 29.78 in - NW 11.5 mph - 0.02 in   Unknown
2:00 AM 46.6 °F - 41.9 °F 84% 29.79 in - SW 3.5 mph - N/A   Unknown
3:00 AM 42.3 °F 40.5 °F 37.8 °F 84% 29.78 in - WNW 3.5 mph - N/A   Unknown
4:00 AM 41.5 °F 38.6 °F 38.3 °F 88% 29.79 in - SW 4.6 mph - N/A   Unknown
5:00 AM 46.8 °F - 41.9 °F 83% 29.82 in - NW 10.4 mph - N/A   Unknown
6:00 AM 47 °F - 41 °F 74% 29.83 in - NW 9.2 mph - -  
6:00 AM 47.1 °F - 41.4 °F 80% 29.83 in - NW 9.2 mph - N/A   Unknown
7:00 AM 49.6 °F - 43.0 °F 78% 29.85 in - NW 10.4 mph - N/A   Unknown
8:00 AM 52.2 °F - 42.1 °F 69% 29.87 in - NNW 11.5 mph - N/A   Unknown
9:00 AM 53.6 °F - 41.5 °F 64% 29.89 in - NNW 11.5 mph - N/A   Unknown
10:00 AM 57.6 °F - 39.4 °F 51% 29.89 in - NNW 10.4 mph - N/A   Unknown
11:00 AM 61.2 °F - 40.5 °F 47% 29.90 in - North 3.5 mph - N/A   Unknown
12:00 PM 64 °F - 38 °F 27% 29.89 in - West 3.5 mph - -  
12:00 PM 63.5 °F - 38.5 °F 40% 29.89 in - West 3.5 mph - N/A   Unknown
1:00 PM 62.8 °F - 37.4 °F 39% 29.90 in - NNW 5.8 mph - N/A   Unknown
2:00 PM 64.2 °F - 36.3 °F 36% 29.89 in - WNW 5.8 mph - N/A   Unknown
4:00 PM 67.6 °F - 37.8 °F 33% 29.87 in - NNW 4.6 mph - N/A   Unknown
5:00 PM 67.8 °F - 36.7 °F 32% 29.87 in - NNE 4.6 mph - N/A   Unknown
6:00 PM 68 °F - 34 °F 18% 29.86 in - SSE 4.6 mph - -  
6:00 PM 67.6 °F - 34.3 °F 29% 29.86 in - SSE 4.6 mph - N/A   Unknown
7:00 PM 67.1 °F - 34.3 °F 30% 29.86 in - SW 4.6 mph - N/A   Unknown
8:00 PM 63.3 °F - 36.1 °F 36% 29.86 in - SSE 5.8 mph - N/A   Unknown
9:00 PM 57.7 °F - 37.9 °F 48% 29.87 in - SSE 5.8 mph - N/A   Unknown
10:00 PM 54.7 °F - 39.9 °F 58% 29.88 in - West 1.2 mph - N/A   Unknown
11:00 PM 48.4 °F - 38.5 °F 69% 29.88 in - SE 4.6 mph - N/A   Unknown